When you browse on this site, cookies collect data to enhance your experience and personalize the content and advertising you see.
Visit our Privacy Policy to learn more. By continuing to use the site, you agree to this use of cookies and data.

Hourly Weather Dhamar

Today, 15 August, Saturday

Time Temperature Precipitation Wind Pressure Humidity
00:00 +21°C° 0.1 mm 1 mps 580 mmHg 68%
01:00 +21°C° 0 mm 1 mps 580 mmHg 68%
02:00 +19°C° 0 mm 0 mps 580 mmHg 68%
03:00 +19°C° 0 mm 0 mps 580 mmHg 71%
04:00 +18°C° 0 mm 0 mps 580 mmHg 72%
05:00 +18°C° 0 mm 0 mps 580 mmHg 74%
06:00 +18°C° 0 mm 0 mps 580 mmHg 76%
07:00 +19°C° 0 mm 0 mps 581 mmHg 67%
08:00 +21°C° 0 mm 0 mps 581 mmHg 59%
09:00 +24°C° 0 mm 1 mps 582 mmHg 48%
10:00 +25°C° 0.1 mm 1 mps 582 mmHg 46%
11:00 +26°C° 0.1 mm 2 mps 583 mmHg 44%
12:00 +26°C° 0.1 mm 3 mps 583 mmHg 41%
13:00 +25°C° 1.8 mm 3 mps 582 mmHg 48%
14:00 +24°C° 1.8 mm 3 mps 581 mmHg 55%
15:00 +24°C° 0 mm 3 mps 580 mmHg 59%
16:00 +22°C° 1 mm 3 mps 580 mmHg 62%
17:00 +21°C° 1 mm 2 mps 580 mmHg 65%
18:00 +20°C° 1 mm 2 mps 580 mmHg 68%
19:00 +20°C° 0 mm 2 mps 580 mmHg 68%
20:00 +21°C° 0 mm 1 mps 580 mmHg 68%
21:00 +21°C° 0 mm 1 mps 580 mmHg 68%
22:00 +21°C° 0 mm 1 mps 581 mmHg 68%
23:00 +21°C° 0 mm 1 mps 581 mmHg 67%

Tomorrow, 16 August, Sunday

Time Temperature Precipitation Wind Pressure Humidity
00:00 +19°C° 0 mm 0 mps 581 mmHg 66%
01:00 +19°C° 0 mm 0 mps 580 mmHg 66%
02:00 +19°C° 0 mm 0 mps 580 mmHg 65%
03:00 +18°C° 0 mm 0 mps 579 mmHg 65%
04:00 +18°C° 0 mm 0 mps 580 mmHg 66%
05:00 +18°C° 0 mm 0 mps 580 mmHg 66%
06:00 +17°C° 0 mm 0 mps 580 mmHg 67%
07:00 +21°C° 0 mm 1 mps 581 mmHg 60%
08:00 +22°C° 0 mm 1 mps 582 mmHg 53%
09:00 +24°C° 0 mm 1 mps 582 mmHg 46%
10:00 +25°C° 0 mm 2 mps 583 mmHg 44%
11:00 +25°C° 0 mm 2 mps 583 mmHg 42%
12:00 +26°C° 0 mm 3 mps 583 mmHg 41%
13:00 +26°C° 0.4 mm 3 mps 583 mmHg 45%
14:00 +25°C° 0.4 mm 3 mps 582 mmHg 50%
15:00 +24°C° 0.4 mm 3 mps 581 mmHg 54%
16:00 +22°C° 2.1 mm 3 mps 581 mmHg 59%
17:00 +21°C° 2.1 mm 3 mps 581 mmHg 64%
18:00 +20°C° 2.1 mm 3 mps 581 mmHg 68%
19:00 +20°C° 0.6 mm 3 mps 581 mmHg 68%
20:00 +20°C° 0.6 mm 3 mps 581 mmHg 68%
21:00 +20°C° 0.6 mm 2 mps 581 mmHg 67%
22:00 +20°C° 0 mm 2 mps 581 mmHg 65%
23:00 +20°C° 0 mm 2 mps 581 mmHg 63%

Day after tomorrow, 17 August, Monday

Time Temperature Precipitation Wind Pressure Humidity
00:00 +22°C° 0 mm 1 mps 581 mmHg 62%
01:00 +22°C° 0 mm 1 mps 581 mmHg 61%
02:00 +21°C° 0 mm 1 mps 581 mmHg 61%
03:00 +21°C° 0 mm 1 mps 580 mmHg 60%
04:00 +19°C° 0 mm 0 mps 580 mmHg 62%
05:00 +19°C° 0 mm 0 mps 580 mmHg 65%
06:00 +18°C° 0 mm 0 mps 581 mmHg 67%
07:00 +22°C° 0 mm 1 mps 581 mmHg 59%
08:00 +23°C° 0 mm 1 mps 582 mmHg 52%
09:00 +24°C° 0 mm 1 mps 583 mmHg 45%
10:00 +25°C° 0.1 mm 2 mps 583 mmHg 44%
11:00 +26°C° 0.1 mm 2 mps 583 mmHg 42%
12:00 +26°C° 0.1 mm 3 mps 583 mmHg 41%
13:00 +26°C° 0.3 mm 3 mps 583 mmHg 43%
14:00 +26°C° 0.3 mm 3 mps 582 mmHg 45%
15:00 +26°C° 0.3 mm 3 mps 582 mmHg 47%
16:00 +25°C° 0.7 mm 3 mps 581 mmHg 51%
17:00 +24°C° 0.7 mm 3 mps 581 mmHg 55%
18:00 +24°C° 0.7 mm 3 mps 581 mmHg 59%
19:00 +23°C° 0.5 mm 2 mps 581 mmHg 64%
20:00 +22°C° 0.5 mm 1 mps 581 mmHg 69%
21:00 +22°C° 0.5 mm 1 mps 581 mmHg 74%
22:00 +22°C° 0 mm 1 mps 581 mmHg 72%
23:00 +22°C° 0 mm 1 mps 581 mmHg 71%

18 August, Tuesday

Time Temperature Precipitation Wind Pressure Humidity
00:00 +21°C° 0 mm 1 mps 581 mmHg 69%
01:00 +21°C° 0 mm 1 mps 580 mmHg 67%
02:00 +21°C° 0 mm 1 mps 580 mmHg 64%
03:00 +21°C° 0 mm 1 mps 580 mmHg 62%
04:00 +21°C° 0 mm 1 mps 580 mmHg 61%
05:00 +20°C° 0 mm 1 mps 580 mmHg 60%
06:00 +20°C° 0 mm 1 mps 580 mmHg 59%
07:00 +22°C° 0 mm 1 mps 581 mmHg 52%
08:00 +24°C° 0 mm 1 mps 582 mmHg 44%
09:00 +25°C° 0 mm 1 mps 583 mmHg 36%
10:00 +26°C° 0 mm 2 mps 583 mmHg 34%
11:00 +27°C° 0 mm 3 mps 583 mmHg 31%
12:00 +28°C° 0 mm 3 mps 583 mmHg 29%
13:00 +28°C° 0.2 mm 3 mps 583 mmHg 33%
14:00 +27°C° 0.2 mm 3 mps 582 mmHg 36%
15:00 +27°C° 0.2 mm 3 mps 581 mmHg 40%
16:00 +26°C° 0.5 mm 3 mps 581 mmHg 44%
17:00 +25°C° 0.5 mm 3 mps 581 mmHg 47%
18:00 +25°C° 0.5 mm 3 mps 581 mmHg 50%
19:00 +24°C° 0.3 mm 2 mps 581 mmHg 55%
20:00 +23°C° 0.3 mm 1 mps 581 mmHg 60%
21:00 +21°C° 0.3 mm 0 mps 581 mmHg 65%
22:00 +22°C° 0 mm 1 mps 581 mmHg 65%
23:00 +22°C° 0 mm 1 mps 580 mmHg 65%

19 August, Wednesday

Time Temperature Precipitation Wind Pressure Humidity
00:00 +22°C° 0 mm 1 mps 580 mmHg 65%
01:00 +22°C° 0 mm 1 mps 580 mmHg 64%
02:00 +22°C° 0 mm 1 mps 580 mmHg 63%
03:00 +21°C° 0 mm 1 mps 579 mmHg 63%
04:00 +21°C° 0 mm 1 mps 580 mmHg 64%
05:00 +21°C° 0 mm 1 mps 580 mmHg 65%
06:00 +21°C° 0 mm 1 mps 580 mmHg 66%
07:00 +22°C° 0 mm 1 mps 581 mmHg 60%
08:00 +23°C° 0 mm 1 mps 582 mmHg 54%
09:00 +24°C° 0 mm 1 mps 582 mmHg 48%
10:00 +25°C° 0.3 mm 2 mps 582 mmHg 47%
11:00 +26°C° 0.3 mm 3 mps 583 mmHg 45%
12:00 +26°C° 0.3 mm 3 mps 583 mmHg 43%
13:00 +26°C° 0.9 mm 3 mps 582 mmHg 47%
14:00 +25°C° 0.9 mm 3 mps 581 mmHg 52%
15:00 +24°C° 0.9 mm 3 mps 580 mmHg 56%
16:00 +22°C° 2 mm 3 mps 580 mmHg 61%
17:00 +21°C° 2 mm 3 mps 580 mmHg 67%
18:00 +20°C° 2 mm 2 mps 579 mmHg 73%
19:00 +19°C° 0.4 mm 2 mps 580 mmHg 73%
20:00 +19°C° 0.4 mm 2 mps 580 mmHg 74%
21:00 +19°C° 0.4 mm 2 mps 580 mmHg 75%
22:00 +20°C° 0.1 mm 1 mps 580 mmHg 72%
23:00 +20°C° 0.1 mm 1 mps 580 mmHg 70%

20 August, Thursday

Time Temperature Precipitation Wind Pressure Humidity
00:00 +21°C° 0.1 mm 1 mps 580 mmHg 68%
01:00 +21°C° 0 mm 1 mps 580 mmHg 67%
02:00 +21°C° 0 mm 1 mps 580 mmHg 67%
03:00 +20°C° 0 mm 1 mps 579 mmHg 66%
04:00 +18°C° 0 mm 0 mps 579 mmHg 67%
05:00 +18°C° 0 mm 0 mps 580 mmHg 67%
06:00 +17°C° 0 mm 0 mps 580 mmHg 68%
07:00 +21°C° 0 mm 1 mps 581 mmHg 61%
08:00 +22°C° 0 mm 1 mps 582 mmHg 53%
09:00 +24°C° 0 mm 1 mps 583 mmHg 46%
10:00 +25°C° 0 mm 2 mps 583 mmHg 44%
11:00 +26°C° 0 mm 3 mps 583 mmHg 41%
12:00 +26°C° 0 mm 3 mps 583 mmHg 39%
13:00 +26°C° 0.4 mm 3 mps 582 mmHg 43%
14:00 +26°C° 0.4 mm 3 mps 582 mmHg 46%
15:00 +25°C° 0.4 mm 4 mps 581 mmHg 50%
16:00 +24°C° 1.3 mm 3 mps 581 mmHg 54%
17:00 +22°C° 1.3 mm 3 mps 581 mmHg 59%
18:00 +22°C° 1.3 mm 3 mps 580 mmHg 63%
19:00 +21°C° 0.4 mm 2 mps 581 mmHg 65%
20:00 +22°C° 0.4 mm 1 mps 581 mmHg 68%
21:00 +22°C° 0.4 mm 1 mps 581 mmHg 70%
22:00 +22°C° 0 mm 1 mps 581 mmHg 69%
23:00 +20°C° 0 mm 0 mps 581 mmHg 69%
Show more